TimeCDT,TemperatureF,Dew PointF,Humidity,Sea Level PressureIn,VisibilityMPH,Wind Direction,Wind SpeedMPH,Gust SpeedMPH,PrecipitationIn,Events,Conditions,WindDirDegrees,DateUTC
12:15 AM,50.0,41.0,71,29.95,10.0,East,3.5,-,N/A,,Clear,100,2012-11-02 05:15:00
12:55 AM,48.2,39.2,71,29.95,10.0,Calm,Calm,-,N/A,,Clear,0,2012-11-02 05:55:00
1:15 AM,46.4,39.2,76,29.95,10.0,Calm,Calm,-,N/A,,Clear,0,2012-11-02 06:15:00
1:55 AM,44.6,39.2,81,29.94,10.0,Calm,Calm,-,N/A,,Clear,0,2012-11-02 06:55:00
2:15 AM,46.4,39.2,76,29.94,10.0,Calm,Calm,-,N/A,,Clear,0,2012-11-02 07:15:00
2:35 AM,46.4,39.2,76,29.94,10.0,SE,3.5,-,N/A,,Clear,140,2012-11-02 07:35:00
2:55 AM,44.6,41.0,87,29.94,10.0,Calm,Calm,-,N/A,,Clear,0,2012-11-02 07:55:00
3:15 AM,44.6,39.2,81,29.94,10.0,Calm,Calm,-,N/A,,Clear,0,2012-11-02 08:15:00
3:55 AM,44.6,39.2,81,29.94,10.0,Calm,Calm,-,N/A,,Clear,0,2012-11-02 08:55:00
4:15 AM,44.6,39.2,81,29.94,10.0,Calm,Calm,-,N/A,,Clear,0,2012-11-02 09:15:00
4:36 AM,44.6,41.0,87,29.93,10.0,Calm,Calm,-,N/A,,Clear,0,2012-11-02 09:36:00
4:55 AM,46.4,39.2,76,29.93,2.5,Calm,Calm,-,N/A,,Clear,0,2012-11-02 09:55:00
5:15 AM,44.6,39.2,81,29.94,10.0,Calm,Calm,-,N/A,,Clear,0,2012-11-02 10:15:00
5:35 AM,44.6,39.2,81,29.93,10.0,Calm,Calm,-,N/A,,Clear,0,2012-11-02 10:35:00
5:55 AM,44.6,37.4,76,29.93,10.0,SE,4.6,-,N/A,,Clear,140,2012-11-02 10:55:00
6:15 AM,44.6,39.2,81,29.94,10.0,Calm,Calm,-,N/A,,Clear,0,2012-11-02 11:15:00
6:35 AM,44.6,39.2,81,29.94,10.0,Calm,Calm,-,N/A,,Clear,0,2012-11-02 11:35:00
7:15 AM,44.6,39.2,81,29.93,10.0,ESE,3.5,-,N/A,,Clear,120,2012-11-02 12:15:00
7:35 AM,44.6,41.0,87,29.94,10.0,Calm,Calm,-,N/A,,Clear,0,2012-11-02 12:35:00
7:55 AM,44.6,41.0,87,29.94,10.0,Calm,Calm,-,N/A,,Clear,0,2012-11-02 12:55:00
8:15 AM,46.4,41.0,81,29.94,10.0,ESE,3.5,-,N/A,,Clear,120,2012-11-02 13:15:00
8:35 AM,48.2,44.6,87,29.95,10.0,Calm,Calm,-,N/A,,Clear,0,2012-11-02 13:35:00
8:55 AM,51.8,44.6,76,29.96,10.0,Calm,Calm,-,N/A,,Clear,0,2012-11-02 13:55:00
9:15 AM,55.4,46.4,72,29.96,10.0,East,3.5,-,N/A,,Clear,100,2012-11-02 14:15:00
9:35 AM,57.2,46.4,67,29.97,10.0,ESE,4.6,-,N/A,,Clear,120,2012-11-02 14:35:00
9:55 AM,59.0,48.2,67,29.97,10.0,ESE,5.8,-,N/A,,Clear,110,2012-11-02 14:55:00
10:16 AM,62.6,48.2,59,29.97,10.0,ESE,5.8,-,N/A,,Clear,120,2012-11-02 15:16:00
10:35 AM,64.4,48.2,56,29.97,10.0,ESE,4.6,-,N/A,,Clear,110,2012-11-02 15:35:00
10:55 AM,66.2,50.0,56,29.96,10.0,ESE,5.8,-,N/A,,Clear,120,2012-11-02 15:55:00
11:35 AM,69.8,51.8,53,29.96,10.0,SSE,4.6,-,N/A,,Clear,150,2012-11-02 16:35:00
11:55 AM,69.8,51.8,53,29.96,10.0,SSE,6.9,-,N/A,,Clear,160,2012-11-02 16:55:00
12:15 PM,71.6,53.6,53,29.95,10.0,SSE,5.8,-,N/A,,Clear,150,2012-11-02 17:15:00
12:36 PM,73.4,51.8,47,29.95,10.0,SW,5.8,-,N/A,,Clear,220,2012-11-02 17:36:00
1:15 PM,77.0,51.8,41,29.93,10.0,SSW,5.8,-,N/A,,Clear,200,2012-11-02 18:15:00
1:35 PM,78.8,51.8,39,29.93,10.0,SW,9.2,-,N/A,,Clear,220,2012-11-02 18:35:00
1:55 PM,78.8,51.8,39,29.92,10.0,WSW,9.2,-,N/A,,Clear,240,2012-11-02 18:55:00
2:15 PM,80.6,53.6,39,29.91,10.0,WSW,10.4,-,N/A,,Clear,240,2012-11-02 19:15:00
2:35 PM,80.6,51.8,37,29.90,10.0,SW,10.4,-,N/A,,Clear,220,2012-11-02 19:35:00
2:56 PM,80.6,53.6,39,29.90,10.0,SSW,9.2,-,N/A,,Clear,210,2012-11-02 19:56:00
3:15 PM,80.6,51.8,37,29.90,10.0,SSW,10.4,-,N/A,,Clear,210,2012-11-02 20:15:00
3:35 PM,80.6,51.8,37,29.89,10.0,SW,9.2,16.1,N/A,,Clear,220,2012-11-02 20:35:00